TimeCDT,TemperatureF,Dew PointF,Humidity,Sea Level PressureIn,VisibilityMPH,Wind Direction,Wind SpeedMPH,Gust SpeedMPH,PrecipitationIn,Events,Conditions,WindDirDegrees,DateUTC
12:54 AM,70.0,62.1,76,30.05,10.0,Calm,Calm,-,N/A,,Clear,0,2013-09-04 05:54:00
1:54 AM,69.1,62.1,78,30.06,10.0,Calm,Calm,-,N/A,,Clear,0,2013-09-04 06:54:00
2:54 AM,69.1,60.1,73,30.06,10.0,Calm,Calm,-,N/A,,Clear,0,2013-09-04 07:54:00
3:54 AM,66.9,61.0,81,30.06,10.0,Calm,Calm,-,N/A,,Clear,0,2013-09-04 08:54:00
4:54 AM,66.0,61.0,84,30.07,10.0,Calm,Calm,-,N/A,,Clear,0,2013-09-04 09:54:00
5:54 AM,64.9,61.0,87,30.08,10.0,Calm,Calm,-,N/A,,Clear,0,2013-09-04 10:54:00
6:54 AM,64.0,60.1,87,30.11,10.0,Calm,Calm,-,N/A,,Clear,0,2013-09-04 11:54:00
7:54 AM,66.9,62.1,84,30.12,10.0,Calm,Calm,-,N/A,,Clear,0,2013-09-04 12:54:00
8:54 AM,72.0,62.1,71,30.14,10.0,NNE,3.5,-,N/A,,Clear,30,2013-09-04 13:54:00
9:54 AM,75.9,61.0,60,30.14,10.0,Calm,Calm,-,N/A,,Clear,0,2013-09-04 14:54:00
10:54 AM,82.0,62.1,51,30.15,9.0,Calm,Calm,-,N/A,,Clear,0,2013-09-04 15:54:00
11:54 AM,84.9,57.9,40,30.14,10.0,East,3.5,-,N/A,,Clear,80,2013-09-04 16:54:00
12:54 PM,86.0,57.0,37,30.13,10.0,Variable,4.6,-,N/A,,Clear,0,2013-09-04 17:54:00
1:54 PM,87.1,55.0,33,30.11,10.0,Variable,3.5,-,N/A,,Clear,0,2013-09-04 18:54:00
2:54 PM,87.1,57.0,36,30.09,10.0,East,8.1,-,N/A,,Clear,100,2013-09-04 19:54:00
3:54 PM,87.1,55.0,33,30.08,10.0,NE,3.5,-,N/A,,Clear,40,2013-09-04 20:54:00
4:54 PM,84.9,57.0,38,30.08,10.0,ESE,6.9,-,N/A,,Clear,120,2013-09-04 21:54:00
5:54 PM,84.9,55.0,36,30.07,10.0,East,6.9,-,N/A,,Clear,100,2013-09-04 22:54:00
6:54 PM,82.9,57.0,41,30.07,10.0,East,6.9,-,N/A,,Clear,90,2013-09-04 23:54:00
7:54 PM,81.0,57.9,45,30.08,10.0,ESE,5.8,-,N/A,,Clear,110,2013-09-05 00:54:00
8:54 PM,78.1,60.1,54,30.10,10.0,ESE,5.8,-,N/A,,Clear,110,2013-09-05 01:54:00
9:54 PM,75.9,60.1,58,30.11,10.0,Calm,Calm,-,N/A,,Clear,0,2013-09-05 02:54:00
10:54 PM,75.0,62.1,64,30.12,10.0,Calm,Calm,-,N/A,,Clear,0,2013-09-05 03:54:00
11:54 PM,72.0,63.0,73,30.12,10.0,Calm,Calm,-,N/A,,Clear,0,2013-09-05 04:54:00